CDT,Max TemperatureF,Mean TemperatureF,Min TemperatureF,Max Dew PointF,MeanDew PointF,Min DewpointF,Max Humidity, Mean Humidity, Min Humidity, Max Sea Level PressureIn, Mean Sea Level PressureIn, Min Sea Level PressureIn, Max VisibilityMiles, Mean VisibilityMiles, Min VisibilityMiles, Max Wind SpeedMPH, Mean Wind SpeedMPH, Max Gust SpeedMPH,PrecipitationIn, CloudCover, Events, WindDirDegrees
2013-6-1,87,80,74,73,72,70,89,76,58,29.98,29.94,29.92,10,8,7,12,7,16,0.00,3,,140
2013-6-2,80,74,69,75,72,66,91,83,74,30.02,29.93,29.86,10,7,3,17,4,29,0.06,3,Rain,112
2013-6-3,87,78,70,74,71,68,94,80,52,29.94,29.89,29.85,10,6,0,17,2,,0.00,3,Fog-Rain,86
2013-6-4,91,83,75,74,73,70,94,78,49,29.94,29.89,29.86,10,8,5,14,2,,0.00,4,,59
2013-6-5,87,81,75,73,72,71,94,78,58,29.98,29.86,29.81,10,8,7,17,5,,0.00,2,,85
2013-6-6,91,82,72,72,69,64,94,77,41,29.87,29.81,29.75,10,8,1,10,4,20,0.00,1,Thunderstorm,10
2013-6-7,87,79,71,70,67,64,88,74,48,29.91,29.85,29.79,10,9,7,12,5,17,0.00,2,Thunderstorm,257
2013-6-8,86,78,71,72,70,68,94,78,58,29.97,29.92,29.88,10,8,3,12,3,,0.00,3,Thunderstorm,146
2013-6-9,86,78,69,74,72,64,89,80,61,29.98,29.95,29.91,10,8,0,20,6,,0.05,4,Rain-Thunderstorm,147
2013-6-10,87,81,75,75,73,71,91,82,62,30.04,30.00,29.95,10,7,5,14,3,,0.01,3,Rain,173
2013-6-11,89,83,75,75,73,72,90,76,55,30.10,30.05,30.02,10,7,4,12,3,,0.00,2,,149
2013-6-12,89,80,72,75,72,68,93,83,49,30.12,30.06,30.03,10,6,1,17,1,,0.00,2,Rain,187
2013-6-13,89,81,73,75,73,70,94,80,52,30.08,29.99,29.91,10,6,0,12,2,,0.00,2,Fog,251
2013-6-14,93,84,75,75,74,70,90,82,56,29.97,29.92,29.87,10,7,2,15,3,23,0.00,3,Rain-Thunderstorm,251
2013-6-15,89,82,75,77,73,69,90,80,55,30.00,29.95,29.92,10,7,2,9,4,,0.45,4,Rain-Thunderstorm,349
2013-6-16,89,83,77,75,73,69,89,76,55,30.07,30.01,29.97,10,7,5,13,2,,0.00,4,Thunderstorm,216
2013-6-17,89,82,76,74,72,68,90,76,52,30.04,29.99,29.95,10,8,5,14,2,18,0.00,3,Rain-Thunderstorm,205
2013-6-18,89,82,74,72,70,64,89,72,43,30.03,29.97,29.91,10,9,7,15,2,,0.00,2,Thunderstorm,232
2013-6-19,89,80,71,73,71,66,94,78,46,30.04,29.99,29.95,10,8,1,12,1,,0.00,2,Thunderstorm,359
2013-6-20,89,81,73,73,71,64,94,81,43,30.13,30.06,30.02,10,8,5,13,2,23,0.00,1,Thunderstorm,8
2013-6-21,89,80,71,73,70,63,94,80,52,30.12,30.07,30.05,10,7,4,9,1,30,0.03,3,Rain-Thunderstorm,70
2013-6-22,89,80,71,73,70,68,91,81,55,30.10,30.04,30.00,10,7,0,12,1,,0.03,5,,69
2013-6-23,87,80,72,73,71,68,91,83,58,30.07,30.04,30.01,10,7,4,9,2,,0.00,5,Thunderstorm,102
2013-6-24,89,81,73,73,71,66,90,77,49,30.14,30.08,30.06,10,8,5,12,2,,0.01,6,Rain-Thunderstorm,140
2013-6-25,89,81,73,73,71,64,94,74,43,30.11,30.06,30.02,10,8,6,12,2,,0.00,6,Rain-Thunderstorm,135
2013-6-26,89,81,73,75,72,70,94,79,52,30.06,30.01,29.97,10,8,3,12,1,,0.00,5,,149
2013-6-27,91,82,74,77,74,71,94,78,52,30.03,29.99,29.94,10,8,2,9,2,,0.00,1,,246
2013-6-28,91,85,79,76,75,72,88,76,52,29.97,29.90,29.81,10,8,7,14,3,,0.00,4,,243
2013-6-29,84,78,71,75,73,66,94,81,66,29.86,29.79,29.72,10,7,3,12,4,23,0.00,5,Rain-Thunderstorm,239
2013-6-30,93,82,71,73,66,52,94,67,24,29.81,29.77,29.72,10,8,0,13,3,,0.00,2,Fog-Thunderstorm,303